Location: Unspecified
(0.0000°N, 0.0000°E)
Time: 18:14:21
(UTC+00:00)

N. Korean satellite - Pass Details

Date: 21 July 2017
Orbit: 461 x 516 km, 97.2° (Epoch: 23 September)

Event Time Altitude Azimuth Distance (km) Brightness Sun altitude
Rises 18:33:32 0° 169° (S) 2,537 9.9 -6.3°
Reaches altitude 10° 18:35:37 10° 169° (S) 1,647 9.0 -6.8°
Maximum altitude 18:39:09 89° 256° (WSW) 475 6.5 -7.7°
Drops below altitude 10° 18:42:37 10° 349° (N) 1,613 9.7 -8.5°
Sets 18:44:38 0° 349° (N) 2,479 10.6 -8.9°
